Weather reports worldwide

Advertisment
Leck, Germany (10022): temperature & dewpoint: 16.01.2019 04:00:00 - 22.01.2019 04:00:00 (CET)Leck, Germany (10022): temperature 5cm & temperature -5cm: 16.01.2019 04:00:00 - 22.01.2019 04:00:00 (CET)Leck, Germany (10022): temperature -20cm & temperature -100cm: 16.01.2019 04:00:00 - 22.01.2019 04:00:00 (CET)Leck, Germany (10022): wind speed & gusts: 16.01.2019 04:00:00 - 22.01.2019 04:00:00 (CET)Leck, Germany (10022): wind direction: 16.01.2019 04:00:00 - 22.01.2019 04:00:00 (CET)Leck, Germany (10022): reduced air pressure: 16.01.2019 04:00:00 - 22.01.2019 04:00:00 (CET)Leck, Germany (10022): visibility: 16.01.2019 04:00:00 - 22.01.2019 04:00:00 (CET)Leck, Germany (10022): sunshine duration: 16.01.2019 04:00:00 - 22.01.2019 04:00:00 (CET)Leck, Germany (10022): precipitation: 16.01.2019 04:00:00 - 22.01.2019 04:00:00 (CET)
Date & Time tt [°C] td [°C] tt 5cm [°C] tt -5cm [°C] tt -20cm [°C] tt -100cm [°C] ff [km/h] ff [kn] fx [km/h] fx [kn] dd ppp [hPa] vv [km] sd [min] rr [mm]
22.01.2019 04:00:00 1,2 1,2 0,6 0,1 1,6 5,9 14 8 21 11 S 1011,9 0,2 0 0,0
22.01.2019 03:00:00 0,7 0,5 0,2 0,1 1,6 5,9 13 7 17 9 S 1012,8 1,6 0 0,0
22.01.2019 02:00:00 0,7 0,5 -0,5 0,1 1,6 5,9 10 5 13 7 S 1013,4 3,9 0 0,0
22.01.2019 01:00:00 -1,1 -1,3 -1,8 0,1 1,6 5,9 6 3 11 6 SSE 1014,1 4,4 0 0,0
22.01.2019 00:00:00 -0,8 -0,9 -5,0 0,1 1,6 5,9 5 3 9 5 S 1014,6 10 0 0,0
21.01.2019 23:00:00 -1,2 -1,4 -4,3 0,1 1,6 5,9 5 3 9 5 S 1015,1 14 0 0,0
21.01.2019 22:00:00 -1,4 -1,5 -4,0 0,1 1,6 5,9 7 4 9 5 SW 1015,4 19 0 0,0
21.01.2019 21:00:00 -0,9 -1,2 -3,4 0,1 1,6 5,9 6 3 8 4 SSW 1015,7 18 0 0,0
21.01.2019 20:00:00 -0,6 -1,3 -2,8 0,1 1,6 5,9 4 2 10 5 SW 1015,9 23 0 0,0
21.01.2019 19:00:00 1,1 -0,4 -2,2 0,1 1,6 5,9 6 4 16 9 W 1016,1 34 0 0,0
21.01.2019 18:00:00 2,2 0,7 -0,1 0,1 1,6 5,9 12 6 19 10 W 1016,4 26 0 0,0
21.01.2019 17:00:00 2,8 0,4 0,5 0,0 1,6 6,0 14 8 22 12 W 1016,3 39 4 0,0
21.01.2019 16:00:00 3,6 0,6 2,1 0,0 1,6 6,0 14 8 26 14 W 1016,5 46 44 0,0
21.01.2019 15:00:00 4,6 1,0 2,9 0,0 1,6 6,0 16 9 26 14 W 1016,8 20 59 0,0
21.01.2019 14:00:00 4,9 1,2 4,2 0,0 1,6 6,0 16 9 24 13 W 1017,2 23 52 0,0
21.01.2019 13:00:00 4,6 1,7 3,3 0,0 1,7 6,0 19 11 29 15 W 1017,6 35 47 0,0
21.01.2019 12:00:00 4,8 1,7 4,0 0,0 1,7 6,0 16 9 24 13 W 1017,9 19 59 0,0
21.01.2019 11:00:00 3,6 2,2 3,2 0,0 1,7 6,0 13 7 20 11 WSW 1018,4 14 39 0,0
21.01.2019 10:00:00 2,0 1,4 1,0 0,0 1,7 6,0 11 6 20 11 SW 1018,5 5 4 0,0
21.01.2019 09:00:00 2,0 1,2 0,8 0,0 1,7 6,0 14 7 20 11 SW 1018,6 36 0 1,1
21.01.2019 08:00:00 1,4 0,6 0,4 -0,1 1,7 6,0 13 7 33 18 W 1019,1 3,5 0 1,3
21.01.2019 07:00:00 1,3 0,5 0,4 -0,1 1,7 6,0 18 10 34 18 SSW 1018,7 2,4 0 0,3
21.01.2019 06:00:00 0,5 -0,7 -1,1 -0,2 1,7 6,1 20 11 33 18 SSW 1019,1 5 0 0,0
21.01.2019 05:00:00 0,4 -1,3 -1,2 -0,2 1,7 6,1 20 11 33 18 SSW 1019,6 7 0 0,0
21.01.2019 04:00:00 -0,8 -2,1 -1,8 -0,2 1,7 6,1 14 8 20 11 SSW 1020,3 7 0 0,0
21.01.2019 03:00:00 -2,3 -3,5 -3,9 -0,3 1,7 6,1 13 7 23 12 S 1020,8 8 0 0,0
21.01.2019 02:00:00 -2,0 -3,0 -4,1 -0,2 1,8 6,1 13 7 17 9 S 1021,1 8 0 0,0
21.01.2019 01:00:00 -3,0 -4,0 -5,7 -0,1 1,8 6,1 9 5 11 6 SSW 1021,9 7 0 0,0
21.01.2019 00:00:00 -2,1 -3,1 -5,3 0,0 1,8 6,1 8 4 14 8 SSW 1022,1 8 0 0,0
20.01.2019 23:00:00 -1,0 -2,3 -2,9 0,1 1,8 6,1 11 6 14 8 SSW 1021,9 8 0 0,0
20.01.2019 22:00:00 -0,7 -1,6 -1,8 0,1 1,8 6,1 10 6 14 8 SSW 1021,8 5 0 0,0
20.01.2019 21:00:00 -0,9 -1,6 -1,8 0,1 1,8 6,1 8 5 11 6 SSW 1021,6 3,5 0 0,0
20.01.2019 20:00:00 -1,2 -1,8 -2,1 0,1 1,8 6,1 7 4 11 6 SSW 1021,3 3,3 0 0,0
20.01.2019 19:00:00 -1,6 -2,5 -2,8 0,1 1,8 6,2 10 6 14 7 S 1020,9 3,6 0 0,0
20.01.2019 18:00:00 -1,0 -2,0 -2,4 0,1 1,8 6,2 7 4 11 6 S 1020,8 4,6 0 0,0
20.01.2019 17:00:00 -0,6 -1,3 -1,8 0,1 1,8 6,2 8 4 10 5 S 1020,5 3,6 0 0,0
20.01.2019 16:00:00 0,8 -0,8 -0,3 0,0 1,8 6,2 8 4 12 6 SSW 1020,3 4,8 34 0,0
20.01.2019 15:00:00 1,8 -0,6 1,7 0,0 1,8 6,2 9 5 11 6 SW 1020,2 6 60 0,0
20.01.2019 14:00:00 1,8 -1,0 2,0 0,0 1,8 6,2 6 3 8 5 SSW 1020,1 7 59 0,0
20.01.2019 13:00:00 0,5 -1,9 0,2 0,0 1,9 6,2 7 4 10 5 S 1020,1 6 32 0,0
20.01.2019 12:00:00 0,0 -2,2 0,5 0,0 1,9 6,2 5 3 6 4 S 1020,0 6 14 0,0
20.01.2019 11:00:00 -1,5 -2,5 -1,5 -0,1 1,9 6,2 3 2 5 3 SE 1019,9 3,6 0 0,0
20.01.2019 10:00:00 -2,6 -3,5 -2,8 -0,1 1,9 6,2 5 3 7 4 E 1019,4 3,5 0 0,0
20.01.2019 09:00:00 -3,1 -4,0 -3,5 -0,1 1,9 6,3 6 4 9 5 ESE 1018,8 3,5 0 0,0
20.01.2019 08:00:00 -3,2 -3,9 -3,9 -0,1 1,9 6,3 5 3 9 5 E 1018,2 3,6 0 0,0
20.01.2019 07:00:00 -3,1 -3,8 -3,9 -0,1 1,9 6,3 5 3 8 5 E 1018,0 3,9 0 0,0
20.01.2019 06:00:00 -3,2 -3,8 -3,9 -0,1 1,9 6,3 8 4 10 5 E 1017,9 4,0 0 0,0
20.01.2019 05:00:00 -3,5 -4,2 -4,5 0,0 2,0 6,3 6 3 8 4 ENE 1018,0 4,0 0 0,0
20.01.2019 04:00:00 -3,5 -4,3 -4,3 0,0 2,0 6,3 7 4 9 5 E 1017,9 4,1 0 0,0
20.01.2019 03:00:00 -3,2 -4,0 -3,7 0,0 2,0 6,3 6 4 7 4 ESE 1018,0 3,9 0 0,0
20.01.2019 02:00:00 -3,4 -4,2 -3,8 0,0 2,0 6,3 9 5 11 6 E 1018,0 4,1 0 0,0
20.01.2019 01:00:00 -3,3 -4,1 -4,0 0,0 2,0 6,3 8 5 10 5 E 1018,0 3,8 0 0,0
20.01.2019 00:00:00 -3,8 -4,4 -4,1 0,1 2,0 6,3 9 5 10 5 E 1018,0 2,9 0 0,0
19.01.2019 23:00:00 -4,8 -5,4 -6,8 0,1 2,1 6,3 9 5 11 6 SSE 1017,9 2,2 0 0,0
19.01.2019 22:00:00 -3,3 -3,6 -6,3 0,1 2,1 6,4 8 4 10 5 SSE 1017,8 2,2 0 0,0
19.01.2019 21:00:00 -3,5 -4,0 -6,5 0,2 2,1 6,4 6 3 8 5 ESE 1018,0 1,0 0 0,0
19.01.2019 20:00:00 -2,9 -3,3 -6,3 0,2 2,1 6,4 4 2 8 5 ESE 1018,0 2,4 0 0,0
19.01.2019 19:00:00 -3,3 -3,6 -4,8 0,2 2,1 6,4 8 5 9 5 ESE 1017,8 1,3 0 0,0
19.01.2019 18:00:00 -1,0 -1,5 -4,3 0,2 2,1 6,4 4 2 9 5 SSE 1017,9 1,1 0 0,0
19.01.2019 17:00:00 0,1 -1,1 -2,2 0,2 2,2 6,4 8 4 14 8 SSE 1017,9 3,1 0 0,0
19.01.2019 16:00:00 1,3 -0,4 -0,3 0,2 2,2 6,4 9 5 14 8 S 1017,8 4,2 46 0,0
19.01.2019 15:00:00 2,0 0,4 1,3 0,2 2,2 6,4 10 5 16 8 S 1018,3 3,5 60 0,0
19.01.2019 14:00:00 2,1 0,7 1,7 0,2 2,2 6,4 10 6 14 8 S 1018,6 4,2 52 0,0
19.01.2019 13:00:00 1,4 0,1 1,0 0,2 2,2 6,4 10 5 15 8 S 1018,9 3,5 13 0,0
19.01.2019 12:00:00 0,8 -0,3 0,9 0,2 2,2 6,4 10 6 15 8 S 1019,3 4,2 32 0,0
19.01.2019 11:00:00 0,6 0,0 -0,1 0,2 2,3 6,4 9 5 15 8 S 1019,2 4,2 5 0,0
19.01.2019 10:00:00 0,3 0,0 -0,2 0,2 2,3 6,5 10 6 13 7 S 1019,0 2,6 20 0,0
19.01.2019 09:00:00 -3,0 -3,2 -3,9 0,2 2,3 6,5 6 3 11 6 SSE 1018,5 0,5 0 0,0
19.01.2019 08:00:00 -1,4 -1,4 -2,4 0,2 2,3 6,5 9 5 12 6 S 1018,3 0,6 0 0,0
19.01.2019 07:00:00 -3,4 -3,4 -6,3 0,2 2,4 6,5 5 3 10 6 S 1018,1 3,6 0 0,0
19.01.2019 06:00:00 -3,9 -4,3 -5,5 0,3 2,4 6,5 6 3 9 5 ESE 1018,1 6 0 0,0
19.01.2019 05:00:00 -3,5 -3,7 -3,9 0,3 2,4 6,5 7 4 9 5 ESE 1018,2 6 0 0,0
19.01.2019 04:00:00 -3,2 -3,2 -5,3 0,3 2,5 6,5 3 1 5 3 SSE 1018,4 3,5 0 0,0
19.01.2019 03:00:00 -3,1 -3,1 -6,2 0,4 2,5 6,5 3 2 5 3 S 1018,5 0,5 0 0,0
19.01.2019 02:00:00 -2,7 -2,7 -5,6 0,4 2,5 6,5 3 2 4 2 SSE 1018,6 0,6 0 0,0
19.01.2019 01:00:00 -2,9 -2,9 -5,3 0,4 2,6 6,5 4 2 6 4 S 1018,6 0,3 0 0,0
19.01.2019 00:00:00 -0,5 -0,8 -4,3 0,5 2,6 6,5 6 3 8 4 S 1018,4 21 0 0,0
18.01.2019 23:00:00 -0,8 -1,2 -4,5 0,5 2,6 6,5 4 2 11 6 SSW 1018,3 30 0 0,0
18.01.2019 22:00:00 -1,1 -1,7 -3,5 0,5 2,6 6,5 7 4 10 5 SW 1018,2 45 0 0,0
18.01.2019 21:00:00 -1,2 -1,8 -3,8 0,6 2,7 6,5 7 4 13 7 SW 1017,8 50 0 0,0
18.01.2019 20:00:00 0,2 -1,1 -2,1 0,6 2,7 6,6 11 6 19 11 SW 1017,4 40 0 0,0
18.01.2019 19:00:00 -0,1 -1,7 -3,1 0,6 2,7 6,6 6 3 14 7 SSW 1017,3 51 0 0,0
18.01.2019 18:00:00 1,3 -0,2 -1,2 0,6 2,7 6,6 10 5 16 9 WSW 1017,3 39 0 0,0
18.01.2019 17:00:00 1,4 -0,4 -1,2 0,6 2,8 6,6 11 6 15 8 WSW 1017,0 46 1 0,0
18.01.2019 16:00:00 2,8 -0,1 0,7 0,6 2,8 6,6 9 5 16 8 WSW 1016,8 40 60 0,0
18.01.2019 15:00:00 3,6 -0,2 2,6 0,6 2,9 6,6 11 6 19 10 W 1016,5 20 60 0,0
18.01.2019 14:00:00 3,5 0,2 2,8 0,6 2,9 6,6 14 7 19 10 W 1016,3 17 60 0,0
18.01.2019 13:00:00 3,3 0,2 2,5 0,6 3,0 6,6 13 7 17 9 W 1016,1 17 60 0,0
18.01.2019 12:00:00 2,2 -1,3 1,5 0,6 3,0 6,6 8 5 17 9 WSW 1015,8 20 60 0,0
18.01.2019 11:00:00 0,8 -1,2 -0,3 0,6 3,1 6,6 7 4 20 11 W 1015,5 27 21 0,0
18.01.2019 10:00:00 0,2 -1,4 -0,3 0,6 3,1 6,6 13 7 25 13 W 1015,0 18 19 0,0
18.01.2019 09:00:00 -2,6 -3,7 -6,5 0,6 3,2 6,6 5 3 7 4 SW 1014,0 45 0 0,0
18.01.2019 08:00:00 -2,5 -3,9 -5,4 0,7 3,3 6,6 5 3 18 10 SW 1013,4 67 0 0,0
18.01.2019 07:00:00 -2,1 -4,5 -4,3 0,7 3,4 6,6 15 8 18 10 SSW 1012,9 61 0 0,0
18.01.2019 06:00:00 -4,5 -6,3 -7,3 0,8 3,4 6,6 8 4 9 5 SSW 1012,4 62 0 0,0
18.01.2019 05:00:00 -5,0 -6,4 -8,3 0,9 3,5 6,6 8 4 9 5 SSW 1012,2 52 0 0,0
18.01.2019 04:00:00 -4,2 -6,0 -7,9 0,9 3,6 6,6 6 3 6 4 SW 1011,7 62 0 0,0
18.01.2019 03:00:00 -3,6 -5,9 -7,3 1,0 3,7 6,6 6 3 11 6 WNW 1011,3 70 0 0,0
18.01.2019 02:00:00 -2,9 -5,9 -6,1 1,1 3,8 6,6 10 5 14 8 NW 1010,5 51 0 0,0
18.01.2019 01:00:00 -2,0 -5,7 -4,7 1,2 3,9 6,6 10 6 23 13 NW 1009,4 66 0 0,0
18.01.2019 00:00:00 -1,9 -4,9 -3,9 1,3 4,0 6,6 13 7 21 11 NW 1008,2 53 0 0,0
17.01.2019 23:00:00 -1,0 -4,1 -3,1 1,4 4,2 6,6 15 8 29 16 NNW 1007,2 63 0 0,0
17.01.2019 22:00:00 -0,9 -2,6 -2,4 1,5 4,3 6,6 18 10 29 16 NNW 1005,7 64 0 0,0
17.01.2019 21:00:00 -1,3 -2,0 -2,2 1,7 4,5 6,6 14 7 29 15 NW 1004,4 44 0 0,1
17.01.2019 20:00:00 -0,9 -1,4 -0,9 1,9 4,6 6,6 20 11 34 18 N 1002,7 1,9 0 0,3
17.01.2019 19:00:00 -0,5 -1,6 -0,5 2,2 4,8 6,6 25 14 42 23 NNE 1000,5 1,3 0 0,1
17.01.2019 18:00:00 0,8 -0,6 0,3 2,9 4,9 6,6 27 15 44 24 NE 998,0 12 0 0,2
17.01.2019 17:00:00 3,2 1,1 2,4 3,8 5,0 6,6 12 7 21 11 WNW 996,1 35 0 0,0
17.01.2019 16:00:00 3,1 1,6 2,4 4,2 5,0 6,5 14 7 34 19 W 995,1 54 0 0,1
17.01.2019 15:00:00 4,0 2,3 3,3 4,6 4,9 6,5 17 9 33 18 W 994,3 30 6 0,0
17.01.2019 14:00:00 4,2 2,4 4,5 5,0 4,9 6,5 23 12 34 18 W 993,8 31 12 0,0
17.01.2019 13:00:00 4,0 2,0 4,5 4,8 4,8 6,5 23 13 44 24 WNW 993,1 27 8 0,0
17.01.2019 12:00:00 4,5 3,2 4,4 4,6 4,8 6,5 26 14 40 22 W 992,3 45 0 0,5
17.01.2019 11:00:00 3,7 2,4 3,3 4,7 4,8 6,5 27 15 46 25 WSW 992,2 11 2 0,4
17.01.2019 10:00:00 5,1 3,3 4,4 3,9 4,8 6,5 25 14 43 23 SW 991,6 12 0 0,0
17.01.2019 09:00:00 4,6 2,4 3,1 3,6 4,9 6,5 26 14 36 19 SW 991,5 39 0 0,0
17.01.2019 08:00:00 4,5 1,8 3,0 3,5 4,9 6,5 23 12 47 26 WSW 991,5 30 0 0,0
17.01.2019 07:00:00 4,5 1,5 3,4 3,6 5,0 6,5 30 16 57 31 WSW 991,7 65 0 0,1
17.01.2019 06:00:00 4,7 2,2 3,4 3,5 5,1 6,5 34 18 53 29 WSW 991,8 38 0 0,0
17.01.2019 05:00:00 4,5 2,3 2,7 3,3 5,3 6,5 22 12 31 17 WSW 992,2 26 0 0,0
17.01.2019 04:00:00 4,5 2,8 2,9 3,8 5,4 6,5 21 11 32 18 WSW 992,5 23 0 0,0
17.01.2019 03:00:00 4,5 2,1 3,1 4,4 5,4 6,5 22 12 41 22 WSW 992,5 39 0 0,0
17.01.2019 02:00:00 5,0 3,3 4,2 4,7 5,5 6,5 18 10 36 19 WSW 992,7 41 0 0,1
17.01.2019 01:00:00 4,9 3,5 4,1 4,8 5,5 6,5 19 10 30 16 WSW 992,8 40 0 0,0
17.01.2019 00:00:00 4,8 3,7 4,2 5,1 5,6 6,5 20 11 32 18 W 993,1 19 0 0,4
16.01.2019 23:00:00 5,1 4,6 4,8 5,4 5,6 6,5 22 12 59 32 WSW 993,6 4,5 0 1,2
16.01.2019 22:00:00 5,5 4,9 5,1 5,5 5,6 6,5 40 22 59 32 SW 993,5 2,2 0 0,0
16.01.2019 21:00:00 5,7 5,0 5,2 5,6 5,6 6,5 42 23 64 34 SW 994,3 3,7 0 0,0
16.01.2019 20:00:00 5,8 5,2 5,4 5,7 5,7 6,5 41 22 61 33 SW 994,8 3,7 0 0,1
16.01.2019 19:00:00 5,8 5,3 5,4 5,8 5,7 6,5 41 22 67 36 SW 995,5 3,3 0 0,1
16.01.2019 18:00:00 5,8 5,5 5,6 5,9 5,7 6,5 42 23 61 33 SW 996,4 1,8 0 0,6
16.01.2019 17:00:00 6,1 5,8 5,8 6,1 5,6 6,5 41 22 61 33 SW 997,2 3,4 0 0,3
16.01.2019 16:00:00 6,4 6,1 6,1 6,2 5,6 6,5 39 21 58 31 SW 997,7 3,9 0 0,5
16.01.2019 15:00:00 6,5 6,3 6,3 6,3 5,5 6,5 37 20 59 32 SW 998,2 2,3 0 0,4
16.01.2019 14:00:00 6,9 6,5 6,6 6,3 5,5 6,5 38 20 56 31 SW 998,9 3,0 0 0,0
16.01.2019 13:00:00 6,9 6,3 6,6 6,2 5,4 6,5 35 19 54 29 SW 999,5 6 0 0,0
16.01.2019 12:00:00 6,9 6,1 6,5 6,1 5,4 6,5 33 18 45 25 SW 1000,3 7 0 0,0
16.01.2019 11:00:00 6,7 5,9 6,4 6,0 5,3 6,5 29 16 42 23 SW 1001,2 11 0 0,0
16.01.2019 10:00:00 6,7 5,9 6,3 5,8 5,3 6,5 31 17 45 24 SW 1001,7 11 0 0,0
16.01.2019 09:00:00 6,6 5,8 6,2 5,7 5,3 6,5 29 16 40 22 SW 1002,2 10 0 0,0
16.01.2019 08:00:00 6,5 5,7 6,1 5,6 5,3 6,5 29 16 41 22 SW 1002,4 10 0 0,0
16.01.2019 07:00:00 6,3 5,6 5,9 5,6 5,3 6,5 25 13 35 19 SW 1003,0 8 0 0,0
16.01.2019 06:00:00 6,5 5,6 6,1 5,6 5,2 6,5 27 15 37 20 SW 1003,3 11 0 0,0
16.01.2019 05:00:00 6,5 5,5 6,0 5,6 5,2 6,5 24 13 41 22 WSW 1004,0 14 0 0,0
16.01.2019 04:00:00 6,9 5,5 6,2 5,6 5,2 6,5 27 15 46 25 WSW 1004,4 17 0 0,0

tt = temperature
td = dewpoint
tt 5cm = temperature 5cm
tt -5cm = temperature -5cm
tt -20cm = temperature -20cm
tt -100cm = temperature -100cm
ff = wind speed
fx = gusts
dd = wind direction
ppp = reduced air pressure
vv = visibility
sd = sunshine duration
rr = precipitation

Next stations